Regional Weather Roundup
Issued by NWS

Home | Current Version | Previous Version | Text Only | Print | Product List | Glossary Off
Versions: 1 2 3 4 5 6 7 8 9 10 11 12 13 14 15 16 17 18 19 20 21 22 23 24 25 26 27

000
ASUS45 KPSR 212010
RWRAZ

ARIZONA HOURLY REGIONAL WEATHER ROUNDUP
NATIONAL WEATHER SERVICE PHOENIX AZ
100 PM MST FRI JUL 21 2017

NOTE: FAIR INDICATES FEW OR NO CLOUDS BELOW 12,000 FEET WITH NO
SIGNIFICANT WEATHER AND/OR OBSTRUCTIONS TO VISIBILITY.

AZZ001>003-036-212100-
NORTHWEST ARIZONA

CITY           SKY/WX    TMP DP  RH WIND       PRES   REMARKS
BULLHEAD CITY  SUNNY    104  54  18 S10       29.84F HX 102
KINGMAN        SUNNY     95  54  25 SW18G26   30.06F
$$

AZZ004>008-015-016-018-212100-
NORTH CENTRAL ARIZONA

CITY           SKY/WX    TMP DP  RH WIND       PRES   REMARKS
GRAND CANYON   PTSUNNY   75  56  51 W10       30.29F THUNDER
WILLIAMS       MOSUNNY   79  55  44 W8        30.28F
PRESCOTT       PTSUNNY   83  58  42 MISG      30.17F
FLAGSTAFF      TSTM      60  56  86 VRB3      30.32R FOG
PAYSON         PTSUNNY   82  61  47 SW10      30.20F
PAGE           MOSUNNY   94  53  25 NE10      30.06F
$$

AZZ009>014-017-212100-
NORTHEAST ARIZONA

CITY           SKY/WX    TMP DP  RH WIND       PRES   REMARKS
WINSLOW        MOSUNNY   90  54  29 NW8G18    30.13F
SAINT JOHNS    MOSUNNY   82  54  37 VRB3      30.17F
WINDOW ROCK    CLOUDY    80  50  34 SE5       30.25F
SHOW LOW       MOSUNNY   75  55  50 N9        30.24F
$$

AZZ540-542>544-546-548-212100-
GREATER PHOENIX AREA

CITY           SKY/WX    TMP DP  RH WIND       PRES   REMARKS
PHOENIX        MOSUNNY   99  59  26 SW6       29.88F
BUCKEYE        SUNNY     99  59  26 SW9       29.89F
GLENDALE       MOSUNNY  100  64  30 S7        29.90F HX 103
LUKE AFB       MOSUNNY   97  62  31 S8        29.88F
DEER VALLEY    SUNNY     96  64  34 VRB3      29.90F
SCOTTSDALE     SUNNY     96  64  34 CALM      29.92F
MESA-FALCON    MOSUNNY   97  68  38 SW7       29.92F HX 101
MESA-GATEWAY   MOSUNNY   93  66  40 CALM      29.92F
CHANDLER       SUNNY     97  66  36 SW6       29.90F HX 100
$$

AZZ539-553-212100-
SOUTHWEST MARICOPA COUNTY AND PINAL COUNTY

CITY           SKY/WX    TMP DP  RH WIND       PRES   REMARKS
CASA GRANDE    SUNNY     94  64  37 NW7       29.93F
GILA BEND      MOSUNNY  100  61  27 SE6       29.88F HX 101
$$

AZZ503-504-507>509-212100-
SOUTHEAST ARIZONA

CITY           SKY/WX    TMP DP  RH WIND       PRES   REMARKS
TUCSON         SUNNY     90  65  43 N7        30.02F
DAVIS-MONTHAN  MOSUNNY   91  65  41 NW9       30.01F
RYAN FIELD     SUNNY     90  66  45 NW7       30.01F
NOGALES        PTSUNNY   75  69  81 SE6       30.11F
SIERRA VISTA   PTSUNNY   80  62  54 NE9       30.16F
DOUGLAS        CLOUDY    76  64  66 W26G32    30.12S THUNDER
SAFFORD        MOSUNNY   88  63  43 S7        30.02F
$$

AZZ532-212100-
SOUTHWEST ARIZONA

CITY           SKY/WX    TMP DP  RH WIND       PRES   REMARKS
YUMA           SUNNY    103  63  27 S12       29.83F HX 105
$$

CAZ041-043-047-048-061-525>527-560>570-212100-
SOUTHERN CALIFORNIA

CITY           SKY/WX    TMP DP  RH WIND       PRES   REMARKS
DOWNTOWN L.A.  SUNNY     82  64  54 CALM      29.94F
L.A. AIRPORT   SUNNY     77  64  64 W12       29.96F
SAN DIEGO      MOSUNNY   75  62  64 SW10      29.97F
BURBANK        SUNNY     85  60  42 SW7       29.95F
ONTARIO        SUNNY     89  47  23 SW9       29.95F
RIVERSIDE      SUNNY     91  52  26 W7        29.94F
PALM SPRINGS   SUNNY    103  43  13 VRB6      29.86F
EL CENTRO NAS  MOSUNNY  103  57  21 SE8       29.82F HX 102
IMPERIAL       MOSUNNY  102  61  25 VRB3      29.80F HX 103
BLYTHE         SUNNY    104  57  21 S12       29.83F HX 103
NEEDLES        SUNNY    106  53  17 SW10G17   29.85F HX 104
$$

NVZ020-UTZ003-212100-
SOUTHERN NEVADA-UTAH

CITY           SKY/WX    TMP DP  RH WIND       PRES   REMARKS
LAS VEGAS      MOSUNNY  100  50  18 VRB3G18   29.91F
SALT LAKE CITY MOSUNNY   94  53  25 NW8       30.04F
$$

NMZ009-TXZ055-212100-
NEW MEXICO-WEST TEXAS

CITY           SKY/WX    TMP DP  RH WIND       PRES   REMARKS
ALBUQUERQUE    MOSUNNY   86  50  28 SW12G17   30.15F
EL PASO        MOSUNNY   89  60  37 SW8       30.08F
$$


........................KEY........................
SKY/WX - SKY CONDITION/WEATHER
TMP    - TEMPERATURE IN FAHRENHEIT
DP     - DEW POINT IN FAHRENHEIT
RH     - RELATIVE HUMIDITY IN PERCENT
WIND   - DIRECTION AND SPEED IN MILES PER HOUR (MPH)
VRB    - VARIABLE WIND DIRECTION
PRES   - MEAN SEA LEVEL PRESSURE IN INCHES OF MERCURY
         F - FALLING PRESSURE   R - RISING PRESSURE
         S - STEADY PRESSURE
VSB    - VISIBILITY IN MILES
HX     - HEAT INDEX IN FAHRENHEIT
WCI    - WIND CHILL INDEX IN FAHRENHEIT
TC     - TEMPERATURE IN CELSIUS WHICH IS ALSO KNOWN AS
         TEMPERATURE IN CENTIGRADE
AFB    - AIR FORCE BASE
         LUKE AFB IS LUKE AIR FORCE BASE
         DAVIS-MONTHAN IS DAVIS-MONTHAN AIR FORCE BASE
NAS    - NAVAL AIR STATION
         EL CENTRO NAS IS EL CENTRO NAVAL AIR STATION
N/A    - NOT AVAILABLE





USA.gov is the U.S. government's official web portal to all federal, state and local government web resources and services.